Location: Newark
(7.1028°S, 35.3258°W)
Time: 08:12:44
(UTC+00:00)

Vanguard 3 - Pass Details

Date: 19 February 2020
Orbit: 508 x 3263 km, 33.4° (Epoch: 08 April)

Event Time Altitude Azimuth Distance (km) Brightness Sun altitude
Rises 17:51:51 0° 333° (NNW) 5,835 11.7 41.3°
Reaches altitude 10° 17:56:29 10° 346° (NNW) 5,227 11.4 40.2°
Maximum altitude 18:09:20 26° 37° (NE) 4,732 10.9 37.0°
Drops below altitude 10° 18:24:14 10° 86° (E) 6,178 11.2 33.4°
Sets 18:30:15 0° 97° (E) 7,068 11.4 31.9°
